Content
SEND FEEDBACK

Daily
Averages
Monthly
Summary
United States of America

BERKELEY, MISSOURI


Home > North America > United States > Missouri
Elevation: 564 feet     Latitude: 38 45N     Longitude: 090 22W

WEATHER
 
SELECT A DAY
Number of Records: 206,556;   Date Range: 1/1/95 - 10/23/14
 
SHARE

PRINT THIS DATA

[ ← Previous Day ]
WEATHER ALMANAC - MAY 16, 2013
[ Next Day → ]
[ °C ]   °F
Weather ElementAverageHighLow
Temperature75.1 °F82 °F (3:51 pm)69.1 °F (11:51 pm)
Dewpoint60.5 °F64.9 °F (3:51 am)55 °F (8:51 pm)
Humidity61.1 %76 % (3:51 am)43 % (4:51 pm)
Barometer29.88 in29.93 in (7:51 am)29.83 in (1:51 am)
Wind Speed7.2 mph13.8 mph (5:51 pm)
Wind Gust21.9 mph (3:51 pm)
Weather ElementAverage
Visibility10 mi
Wind DirectionSSE (173 °)

Weather ElementTotal
Precipitation---
Cooling Degree Days10.6 (Base 65)
Growing Degree Days25.6 (Base 50)
Averaged from 23 records on May 16, 2013
WEATHER CONDITIONS BREAKOUT
WIND DIRECTION BREAKOUT
WEATHER BY HOUR - MAY 16, 2013
[ °C ]   °F
Local TimeTemperatureDewpointHumidityBarometerVisibilityWind DirectionWind SpeedGust SpeedPrecipitationEventsConditions
1:51 AM75.0 °F64.0 °F69 %29.83 in10.0 miWest (270°)5.8 mphMostly Cloudy
2:51 AM73.0 °F64.0 °F73 %29.84 in10.0 miWSW (250°)5.8 mphMostly Cloudy
3:51 AM73.0 °F64.9 °F76 %29.86 in10.0 miWest (260°)6.9 mphMostly Cloudy
4:51 AM72.0 °F64.0 °F76 %29.87 in10.0 miWest (260°)5.8 mphOvercast
5:51 AM72.0 °F64.0 °F76 %29.87 in10.0 miSW (230°)5.8 mphOvercast
6:51 AM72.0 °F62.1 °F71 %29.91 in10.0 miWSW (250°)8.1 mph0.00 inRainLight Rain
7:51 AM73.0 °F62.1 °F68 %29.93 in10.0 miWSW (240°)4.6 mph0.00 inOvercast
8:51 AM75.9 °F62.1 °F62 %29.91 in10.0 miWest (270°)4.6 mphMostly Cloudy
9:51 AM77.0 °F62.1 °F60 %29.92 in10.0 miCalmMostly Cloudy
10:51 AM77.0 °F62.1 °F60 %29.91 in10.0 miENE (60°)4.6 mphMostly Cloudy
11:51 AM79.0 °F63.0 °F58 %29.90 in10.0 miESE (110°)8.1 mphMostly Cloudy
12:51 PM77.0 °F64.9 °F66 %29.90 in10.0 miSSE (160°)12.7 mphMostly Cloudy
1:51 PM75.9 °F64.0 °F67 %29.89 in10.0 miSSE (160°)10.4 mphMostly Cloudy
2:51 PM80.1 °F62.1 °F54 %29.87 in10.0 miSSE (150°)12.7 mphMostly Cloudy
3:51 PM82.0 °F59.0 °F45 %29.86 in10.0 miSSE (160°)11.5 mph21.9 mphMostly Cloudy
4:51 PM80.1 °F55.9 °F43 %29.86 in10.0 miSouth (180°)10.4 mph18.4 mphMostly Cloudy
5:51 PM79.0 °F55.9 °F45 %29.86 in10.0 miSouth (180°)13.8 mphMostly Cloudy
6:51 PM75.9 °F57.0 °F52 %29.87 in10.0 miSSW (200°)13.8 mphMostly Cloudy
7:51 PM73.9 °F55.9 °F53 %29.88 in10.0 miSSW (200°)5.8 mphMostly Cloudy
8:51 PM73.0 °F55.0 °F53 %29.88 in10.0 miSSW (210°)8.1 mphMostly Cloudy
9:51 PM71.1 °F55.9 °F59 %29.90 in10.0 miSouth (180°)5.8 mphMostly Cloudy
10:51 PM71.1 °F55.0 °F57 %29.91 in10.0 miCalmMostly Cloudy
11:51 PM69.1 °F55.9 °F63 %29.92 in10.0 miCalmMostly Cloudy
Hourly data recorded from KSTL, located miles away from Berkeley, Missouri







STORIES FROM OUR PARTNERS